| time (UTC) | temp F | wind direction | speed knots | gust knots | rain 1hr in | rain 24hr in | rain mn in | humidity % | barometer mb |
| 20260505124827 | 57 | 332 | 6.1 | 14.8 | 0.00 | 0.00 | 0.00 | 40 | 1006.5 |
| 20260505123103 | 57 | 333 | 7.0 | 15.6 | 0.00 | 0.00 | 0.00 | 39 | 1006.6 |
| 20260505121646 | 57 | 292 | 7.0 | 15.6 | 0.00 | 0.00 | 0.00 | 39 | 1006.5 |
| 20260505120033 | 58 | 261 | 4.3 | 14.8 | 0.00 | 0.00 | 0.00 | 39 | 1006.1 |
| 20260505114134 | 58 | 319 | 6.1 | 14.8 | 0.00 | 0.00 | 0.00 | 38 | 1006.4 |
| 20260505111815 | 58 | 256 | 4.3 | 11.3 | 0.00 | 0.00 | 0.00 | 38 | 1006.1 |
| 20260505111104 | 58 | 327 | 5.2 | 11.3 | 0.00 | 0.00 | 0.00 | 38 | 1006.0 |
| 20260505101130 | 59 | 302 | 5.2 | 13.9 | 0.00 | 0.00 | 0.00 | 36 | 1005.4 |
| 20260505095250 | 60 | 16 | 6.1 | 13.9 | 0.00 | 0.00 | 0.00 | 36 | 1005.4 |
| 20260505093259 | 60 | 293 | 6.1 | 13.0 | 0.00 | 0.00 | 0.00 | 36 | 1005.4 |
| 20260505090237 | 60 | 281 | 5.2 | 12.2 | 0.00 | 0.00 | 0.00 | 38 | 1005.3 |
| 20260505084502 | 60 | 325 | 5.2 | 15.6 | 0.00 | 0.00 | 0.00 | 37 | 1005.2 |
| 20260505082845 | 61 | 303 | 5.2 | 15.6 | 0.00 | 0.00 | 0.00 | 36 | 1005.0 |
| 20260505080416 | 61 | 329 | 6.1 | 16.5 | 0.00 | 0.00 | 0.00 | 36 | 1004.8 |
| 20260505074156 | 62 | 325 | 7.0 | 16.5 | 0.00 | 0.00 | 0.00 | 34 | 1004.6 |
| 20260505071854 | 62 | 360 | 6.1 | 15.6 | 0.00 | 0.00 | 0.00 | 33 | 1004.5 |
| 20260505065859 | 63 | 341 | 5.2 | 15.6 | 0.00 | 0.00 | 0.00 | 33 | 1004.2 |
| 20260505063539 | 63 | 354 | 3.5 | 8.7 | 0.00 | 0.00 | 0.00 | 34 | 1004.2 |
| 20260505061801 | 63 | 10 | 4.3 | 9.6 | 0.00 | 0.00 | 0.00 | 33 | 1003.9 |
| 20260505061051 | 64 | 128 | 2.6 | 9.6 | 0.00 | 0.00 | 0.00 | 32 | 1003.9 |
| 20260505060351 | 64 | 293 | 4.3 | 9.6 | 0.00 | 0.00 | 0.00 | 32 | 1003.9 |
| 20260505055655 | 65 | 274 | 4.3 | 13.0 | 0.00 | 0.00 | 0.00 | 32 | 1003.8 |
| 20260505054820 | 66 | 300 | 3.5 | 13.9 | 0.00 | 0.00 | 0.00 | 30 | 1003.6 |
| 20260505054014 | 66 | 351 | 5.2 | 13.9 | 0.00 | 0.00 | 0.00 | 29 | 1003.3 |
| 20260505053521 | 67 | 335 | 2.6 | 15.6 | 0.00 | 0.00 | 0.00 | 29 | 1003.2 |
| 20260505053138 | 68 | 352 | 6.1 | 15.6 | 0.00 | 0.00 | 0.00 | 28 | 1003.2 |
| 20260505052327 | 68 | 100 | 7.0 | 19.1 | 0.00 | 0.00 | 0.00 | 28 | 1003.0 |
| 20260505051719 | 69 | 3 | 6.1 | 19.1 | 0.00 | 0.00 | 0.00 | 28 | 1002.9 |
| 20260505051237 | 70 | 301 | 7.0 | 13.0 | 0.00 | 0.00 | 0.00 | 28 | 1002.8 |
| 20260505051004 | 70 | 320 | 5.2 | 13.0 | 0.00 | 0.00 | 0.00 | 28 | 1002.7 |
| 20260505050431 | 71 | 330 | 4.3 | 11.3 | 0.00 | 0.00 | 0.00 | 28 | 1002.6 |
| 20260505041730 | 73 | 243 | 5.2 | 13.9 | 0.00 | 0.00 | 0.00 | 26 | 1002.3 |
| 20260505040811 | 74 | 335 | 4.3 | 13.9 | 0.00 | 0.00 | 0.00 | 27 | 1002.2 |
| 20260505035848 | 74 | 325 | 5.2 | 13.9 | 0.00 | 0.00 | 0.00 | 28 | 1002.2 |
| 20260505035037 | 74 | 301 | 6.1 | 13.0 | 0.00 | 0.00 | 0.00 | 27 | 1002.1 |
| 20260505034226 | 74 | 32 | 7.8 | 13.0 | 0.00 | 0.00 | 0.00 | 26 | 1002.0 |
| 20260505033303 | 75 | 275 | 6.1 | 13.0 | 0.00 | 0.00 | 0.00 | 26 | 1001.9 |
| 20260505032603 | 75 | 294 | 4.3 | 13.0 | 0.00 | 0.00 | 0.00 | 26 | 1001.9 |
| 20260505031902 | 75 | 298 | 7.0 | 12.2 | 0.00 | 0.00 | 0.00 | 26 | 1001.9 |
| 20260505031051 | 76 | 360 | 6.1 | 11.3 | 0.00 | 0.00 | 0.00 | 26 | 1001.7 |
| 20260505030241 | 76 | 302 | 5.2 | 10.4 | 0.00 | 0.00 | 0.00 | 26 | 1001.7 |
| 20260505025320 | 76 | 347 | 4.3 | 9.6 | 0.00 | 0.00 | 0.00 | 25 | 1001.6 |
| 20260505024251 | 76 | 334 | 3.5 | 10.4 | 0.00 | 0.00 | 0.00 | 26 | 1001.6 |
| 20260505023441 | 76 | 14 | 3.5 | 16.5 | 0.00 | 0.00 | 0.00 | 26 | 1001.5 |
| 20260505022847 | 76 | 328 | 6.1 | 16.5 | 0.00 | 0.00 | 0.00 | 25 | 1001.4 |
| 20260505022254 | 77 | 269 | 4.3 | 13.0 | 0.00 | 0.00 | 0.00 | 26 | 1001.3 |
| 20260505021435 | 77 | 319 | 7.0 | 13.0 | 0.00 | 0.00 | 0.00 | 27 | 1001.1 |
| 20260505020630 | 78 | 321 | 5.2 | 13.0 | 0.00 | 0.00 | 0.00 | 26 | 1001.0 |
| 20260505015707 | 78 | 297 | 4.3 | 14.8 | 0.00 | 0.00 | 0.00 | 27 | 1001.0 |
| 20260505014859 | 78 | 288 | 6.1 | 13.9 | 0.00 | 0.00 | 0.00 | 27 | 1000.9 |
| 20260505013932 | 79 | 26 | 2.6 | 13.0 | 0.00 | 0.00 | 0.00 | 31 | 1000.7 |
| 20260505012755 | 79 | 36 | 4.3 | 13.9 | 0.00 | 0.00 | 0.00 | 28 | 1000.7 |
| 20260505012418 | 79 | 354 | 4.3 | 13.9 | 0.00 | 0.00 | 0.00 | 29 | 1000.6 |
| 20260505011943 | 79 | 348 | 5.2 | 11.3 | 0.00 | 0.00 | 0.00 | 29 | 1000.5 |
| 20260505011127 | 80 | 326 | 5.2 | 13.0 | 0.00 | 0.00 | 0.00 | 30 | 1000.4 |
| 20260505010757 | 80 | 318 | 5.2 | 13.0 | 0.00 | 0.00 | 0.00 | 31 | 1000.3 |
| 20260505010203 | 79 | 289 | 7.8 | 12.2 | 0.00 | 0.00 | 0.00 | 29 | 1000.3 |
| 20260505005022 | 79 | 295 | 7.0 | 13.9 | 0.00 | 0.00 | 0.00 | 29 | 1000.3 |
| 20260505004433 | 79 | 294 | 6.1 | 13.9 | 0.00 | 0.00 | 0.00 | 29 | 1000.2 |
| 20260505003619 | 80 | 298 | 4.3 | 13.0 | 0.00 | 0.00 | 0.00 | 29 | 1000.2 |
| 20260505002442 | 81 | 300 | 6.1 | 13.9 | 0.00 | 0.00 | 0.00 | 28 | 1000.2 |
| 20260505001414 | 81 | 325 | 6.1 | 16.5 | 0.00 | 0.00 | 0.00 | 30 | 1000.1 |
| 20260505000233 | 81 | 278 | 8.7 | 16.5 | 0.00 | 0.00 | 0.00 | 28 | 1000.1 |
| 20260504235305 | 81 | 320 | 6.1 | 16.5 | 0.00 | 0.00 | 0.00 | 28 | 1000.1 |
| 20260504234717 | 81 | 309 | 8.7 | 16.5 | 0.00 | 0.00 | 0.00 | 27 | 1000.0 |
| 20260504234127 | 81 | 302 | 6.1 | 15.6 | 0.00 | 0.00 | 0.00 | 26 | 1000.0 |
| 20260504233425 | 81 | 331 | 7.8 | 15.6 | 0.00 | 0.00 | 0.00 | 25 | 1000.1 |
| 20260504232721 | 81 | 290 | 5.2 | 12.2 | 0.00 | 0.00 | 0.00 | 26 | 1000.1 |
| 20260504232308 | 81 | 259 | 4.3 | 11.3 | 0.00 | 0.00 | 0.00 | 25 | 1000.1 |
| 20260504231430 | 81 | 315 | 7.8 | 11.3 | 0.00 | 0.00 | 0.00 | 24 | 1000.0 |
| 20260504230512 | 81 | 289 | 4.3 | 15.6 | 0.00 | 0.00 | 0.00 | 26 | 1000.0 |
| 20260504230043 | 81 | 280 | 6.1 | 15.6 | 0.00 | 0.00 | 0.00 | 24 | 1000.1 |
| 20260504224958 | 80 | 265 | 6.1 | 16.5 | 0.00 | 0.00 | 0.00 | 25 | 1000.1 |
| 20260504224538 | 80 | 290 | 7.0 | 14.8 | 0.00 | 0.00 | 0.00 | 23 | 1000.2 |
| 20260504223705 | 80 | 267 | 5.2 | 14.8 | 0.00 | 0.00 | 0.00 | 26 | 1000.2 |
| 20260504222857 | 81 | 280 | 7.8 | 14.8 | 0.00 | 0.00 | 0.00 | 24 | 1000.2 |
| 20260504222519 | 81 | 326 | 3.5 | 17.4 | 0.00 | 0.00 | 0.00 | 26 | 1000.2 |
| 20260504221932 | 81 | 305 | 10.4 | 17.4 | 0.00 | 0.00 | 0.00 | 25 | 1000.3 |
| 20260504221228 | 81 | 238 | 6.1 | 14.8 | 0.00 | 0.00 | 0.00 | 26 | 1000.2 |
| 20260504220422 | 81 | 244 | 6.1 | 16.5 | 0.00 | 0.00 | 0.00 | 27 | 1000.3 |
| 20260504215828 | 80 | 316 | 6.1 | 18.2 | 0.00 | 0.00 | 0.00 | 27 | 1000.3 |
| 20260504215019 | 80 | 282 | 10.4 | 18.2 | 0.00 | 0.00 | 0.00 | 27 | 1000.3 |
| 20260504214208 | 80 | 300 | 7.8 | 18.2 | 0.00 | 0.00 | 0.00 | 26 | 1000.3 |
| 20260504213355 | 80 | 290 | 8.7 | 18.2 | 0.00 | 0.00 | 0.00 | 27 | 1000.3 |
| 20260504212435 | 80 | 294 | 6.1 | 14.8 | 0.00 | 0.00 | 0.00 | 29 | 1000.3 |
| 20260504210445 | 79 | 261 | 7.8 | 18.2 | 0.00 | 0.00 | 0.00 | 29 | 1000.5 |
| 20260504205634 | 80 | 304 | 6.1 | 18.2 | 0.00 | 0.00 | 0.00 | 29 | 1000.4 |
| 20260504204713 | 80 | 258 | 6.1 | 16.5 | 0.00 | 0.00 | 0.00 | 29 | 1000.5 |
| 20260504204010 | 80 | 301 | 7.0 | 14.8 | 0.00 | 0.00 | 0.00 | 31 | 1000.5 |
| 20260504202726 | 79 | 234 | 7.8 | 18.2 | 0.00 | 0.00 | 0.00 | 32 | 1000.6 |
| 20260504201801 | 79 | 282 | 7.0 | 18.2 | 0.00 | 0.00 | 0.00 | 32 | 1000.5 |
| 20260504200623 | 80 | 292 | 7.8 | 16.5 | 0.00 | 0.00 | 0.00 | 28 | 1000.5 |
| 20260504195809 | 81 | 265 | 5.2 | 14.8 | 0.00 | 0.00 | 0.00 | 30 | 1000.5 |
| 20260504194631 | 81 | 276 | 7.8 | 13.9 | 0.00 | 0.00 | 0.00 | 28 | 1000.4 |
| 20260504193710 | 80 | 302 | 7.0 | 21.7 | 0.00 | 0.00 | 0.00 | 29 | 1000.5 |
| 20260504192748 | 80 | 228 | 7.0 | 21.7 | 0.00 | 0.00 | 0.00 | 29 | 1000.5 |
| 20260504191939 | 80 | 269 | 8.7 | 16.5 | 0.00 | 0.00 | 0.00 | 28 | 1000.3 |
| 20260504191343 | 80 | 249 | 8.7 | 17.4 | 0.00 | 0.00 | 0.00 | 30 | 1000.5 |
| 20260504190751 | 79 | 262 | 6.1 | 17.4 | 0.00 | 0.00 | 0.00 | 31 | 1000.5 |
| 20260504190423 | 78 | 277 | 5.2 | 16.5 | 0.00 | 0.00 | 0.00 | 30 | 1000.4 |
| 20260504185614 | 78 | 248 | 6.1 | 19.1 | 0.00 | 0.00 | 0.00 | 30 | 1000.5 |
| 20260504184913 | 79 | 296 | 7.8 | 19.1 | 0.00 | 0.00 | 0.00 | 30 | 1000.5 |
| 20260504184320 | 79 | 294 | 5.2 | 9.6 | 0.00 | 0.00 | 0.00 | 31 | 1000.5 |
| 20260504183358 | 79 | 270 | 4.3 | 7.8 | 0.00 | 0.00 | 0.00 | 35 | 1000.4 |
| 20260504182658 | 79 | 278 | 2.6 | 9.6 | 0.00 | 0.00 | 0.00 | 36 | 1000.5 |
| 20260504181408 | 78 | 214 | 1.7 | 13.9 | 0.00 | 0.00 | 0.00 | 38 | 1000.6 |
| 20260504180708 | 78 | 251 | 6.1 | 13.9 | 0.00 | 0.00 | 0.00 | 35 | 1000.7 |
| 20260504175751 | 78 | 242 | 5.2 | 11.3 | 0.00 | 0.00 | 0.00 | 34 | 1000.8 |
| 20260504175049 | 78 | 199 | 4.3 | 7.8 | 0.00 | 0.00 | 0.00 | 37 | 1000.8 |
| 20260504173911 | 78 | 182 | 2.6 | 7.8 | 0.00 | 0.00 | 0.00 | 40 | 1000.9 |
| 20260504173316 | 78 | 215 | 3.5 | 10.4 | 0.00 | 0.00 | 0.00 | 41 | 1001.0 |
| 20260504172833 | 77 | 165 | 2.6 | 10.4 | 0.00 | 0.00 | 0.00 | 40 | 1001.0 |
| 20260504172245 | 77 | 205 | 3.5 | 8.7 | 0.00 | 0.00 | 0.00 | 39 | 1001.1 |
| 20260504171653 | 77 | 228 | 3.5 | 7.8 | 0.00 | 0.00 | 0.00 | 41 | 1001.0 |
| 20260504170954 | 76 | 225 | 3.5 | 7.8 | 0.00 | 0.00 | 0.00 | 42 | 1001.0 |
| 20260504170625 | 76 | 242 | 1.7 | 6.1 | 0.00 | 0.00 | 0.00 | 42 | 1001.0 |
| 20260504150810 | 69 | 250 | 1.7 | 5.2 | 0.00 | 0.00 | 0.00 | 50 | 1001.6 |
| 20260504141012 | 64 | 192 | 2.6 | 7.0 | 0.00 | 0.00 | 0.00 | 53 | 1002.0 |
| 20260504140510 | 63 | 197 | 1.7 | 6.1 | 0.00 | 0.00 | 0.00 | 54 | 1001.9 |